When you browse on this site, cookies collect data to enhance your experience and personalize the content and advertising you see.
Visit our Privacy Policy to learn more. By continuing to use the site, you agree to this use of cookies and data.
  • In Austria
  • List of Countries
  • For 7 days
  • Water Temperature
  • Satellite Maps
  • Weather Map
  • News
  • Weather Widgets
  • user-avatar
    Login

    Hourly Weather Luanda

    Today, 18 January, Friday

    Time Temperature Precipitation Wind Pressure Humidity
    00:00 +28°C° 0 mm 3 mps 754 mmHg 81%
    01:00 +28°C° 0 mm 2 mps 754 mmHg 84%
    02:00 +28°C° 0 mm 2 mps 753 mmHg 84%
    03:00 +28°C° 0 mm 2 mps 753 mmHg 85%
    04:00 +27°C° 0 mm 2 mps 753 mmHg 85%
    05:00 +28°C° 0 mm 2 mps 753 mmHg 84%
    06:00 +28°C° 0 mm 2 mps 754 mmHg 83%
    07:00 +28°C° 0 mm 2 mps 754 mmHg 82%
    08:00 +29°C° 0 mm 2 mps 754 mmHg 77%
    09:00 +30°C° 0 mm 1 mps 754 mmHg 73%
    10:00 +31°C° 0 mm 1 mps 754 mmHg 68%
    11:00 +31°C° 0 mm 1 mps 754 mmHg 64%
    12:00 +32°C° 0 mm 2 mps 753 mmHg 61%
    13:00 +32°C° 0 mm 2 mps 752 mmHg 58%
    14:00 +34°C° 0 mm 3 mps 752 mmHg 57%
    15:00 +34°C° 0 mm 4 mps 751 mmHg 57%
    16:00 +34°C° 0 mm 5 mps 751 mmHg 56%
    17:00 +33°C° 0 mm 5 mps 751 mmHg 63%
    18:00 +32°C° 0 mm 4 mps 752 mmHg 69%
    19:00 +29°C° 0 mm 4 mps 753 mmHg 76%
    20:00 +29°C° 0 mm 4 mps 753 mmHg 77%
    21:00 +29°C° 0 mm 4 mps 754 mmHg 78%
    22:00 +29°C° 0 mm 3 mps 755 mmHg 79%
    23:00 +28°C° 1.6 mm 3 mps 755 mmHg 81%

    Tomorrow, 19 January, Saturday

    Time Temperature Precipitation Wind Pressure Humidity
    00:00 +28°C° 1.6 mm 3 mps 754 mmHg 83%
    01:00 +28°C° 1.6 mm 3 mps 754 mmHg 85%
    02:00 +27°C° 1.5 mm 3 mps 754 mmHg 85%
    03:00 +27°C° 1.5 mm 2 mps 754 mmHg 85%
    04:00 +27°C° 1.5 mm 2 mps 754 mmHg 86%
    05:00 +27°C° 1.2 mm 2 mps 754 mmHg 86%
    06:00 +27°C° 1.2 mm 1 mps 754 mmHg 86%
    07:00 +27°C° 1.2 mm 1 mps 755 mmHg 86%
    08:00 +27°C° 0.9 mm 1 mps 755 mmHg 83%
    09:00 +28°C° 0.9 mm 1 mps 755 mmHg 80%
    10:00 +28°C° 0.9 mm 1 mps 756 mmHg 77%
    11:00 +29°C° 0.7 mm 1 mps 756 mmHg 75%
    12:00 +29°C° 0.7 mm 2 mps 755 mmHg 73%
    13:00 +30°C° 0.7 mm 2 mps 755 mmHg 70%
    14:00 +29°C° 0.2 mm 2 mps 755 mmHg 72%
    15:00 +29°C° 0.2 mm 2 mps 754 mmHg 74%
    16:00 +28°C° 0.2 mm 2 mps 754 mmHg 75%
    17:00 +28°C° 0.2 mm 1 mps 754 mmHg 79%
    18:00 +27°C° 0.2 mm 1 mps 754 mmHg 82%
    19:00 +27°C° 0.2 mm 1 mps 754 mmHg 85%
    20:00 +27°C° 0.1 mm 1 mps 754 mmHg 86%
    21:00 +27°C° 0.1 mm 2 mps 755 mmHg 86%
    22:00 +26°C° 0.1 mm 2 mps 755 mmHg 87%
    23:00 +26°C° 0 mm 2 mps 755 mmHg 87%

    Day after tomorrow, 20 January, Sunday

    Time Temperature Precipitation Wind Pressure Humidity
    00:00 +26°C° 0 mm 2 mps 755 mmHg 88%
    01:00 +26°C° 0 mm 2 mps 755 mmHg 88%
    02:00 +25°C° 0 mm 2 mps 754 mmHg 88%
    03:00 +25°C° 0 mm 2 mps 754 mmHg 88%
    04:00 +25°C° 0 mm 2 mps 753 mmHg 88%
    05:00 +25°C° 0 mm 2 mps 754 mmHg 87%
    06:00 +25°C° 0 mm 2 mps 754 mmHg 86%
    07:00 +25°C° 0 mm 2 mps 754 mmHg 85%
    08:00 +27°C° 0 mm 2 mps 755 mmHg 78%
    09:00 +28°C° 0 mm 2 mps 755 mmHg 71%
    10:00 +30°C° 0 mm 1 mps 755 mmHg 65%
    11:00 +31°C° 0 mm 2 mps 755 mmHg 60%
    12:00 +32°C° 0 mm 2 mps 754 mmHg 55%
    13:00 +34°C° 0 mm 3 mps 754 mmHg 51%
    14:00 +34°C° 0 mm 3 mps 753 mmHg 53%
    15:00 +34°C° 0 mm 4 mps 752 mmHg 54%
    16:00 +34°C° 0 mm 5 mps 752 mmHg 56%
    17:00 +32°C° 0 mm 5 mps 752 mmHg 62%
    18:00 +30°C° 0 mm 4 mps 753 mmHg 68%
    19:00 +29°C° 0 mm 4 mps 753 mmHg 74%
    20:00 +28°C° 0 mm 4 mps 754 mmHg 75%
    21:00 +28°C° 0 mm 3 mps 755 mmHg 77%
    22:00 +28°C° 0 mm 3 mps 755 mmHg 79%
    23:00 +28°C° 0 mm 3 mps 755 mmHg 80%

    21 January, Monday

    Time Temperature Precipitation Wind Pressure Humidity
    00:00 +28°C° 0 mm 3 mps 755 mmHg 81%
    01:00 +27°C° 0 mm 2 mps 755 mmHg 83%
    02:00 +27°C° 0 mm 2 mps 754 mmHg 84%
    03:00 +27°C° 0 mm 3 mps 754 mmHg 85%
    04:00 +27°C° 0 mm 3 mps 754 mmHg 86%
    05:00 +27°C° 0 mm 3 mps 754 mmHg 86%
    06:00 +27°C° 0 mm 3 mps 755 mmHg 85%
    07:00 +27°C° 0 mm 3 mps 755 mmHg 85%
    08:00 +29°C° 0 mm 2 mps 755 mmHg 77%
    09:00 +30°C° 0 mm 2 mps 756 mmHg 68%
    10:00 +32°C° 0 mm 1 mps 756 mmHg 60%
    11:00 +34°C° 0 mm 2 mps 755 mmHg 57%
    12:00 +34°C° 0 mm 3 mps 754 mmHg 54%
    13:00 +35°C° 0 mm 4 mps 754 mmHg 51%
    14:00 +35°C° 0 mm 5 mps 753 mmHg 53%
    15:00 +34°C° 0 mm 5 mps 752 mmHg 54%
    16:00 +34°C° 0 mm 5 mps 752 mmHg 56%
    17:00 +33°C° 0 mm 5 mps 752 mmHg 61%
    18:00 +30°C° 0 mm 4 mps 753 mmHg 66%
    19:00 +29°C° 0 mm 4 mps 753 mmHg 71%
    20:00 +29°C° 0 mm 4 mps 754 mmHg 73%
    21:00 +28°C° 0 mm 3 mps 754 mmHg 75%
    22:00 +28°C° 0 mm 3 mps 755 mmHg 76%
    23:00 +28°C° 0 mm 3 mps 755 mmHg 77%

    22 January, Tuesday

    Time Temperature Precipitation Wind Pressure Humidity
    00:00 +28°C° 0 mm 2 mps 754 mmHg 78%
    01:00 +27°C° 0 mm 2 mps 754 mmHg 79%
    02:00 +27°C° 0 mm 2 mps 754 mmHg 80%
    03:00 +27°C° 0 mm 3 mps 753 mmHg 81%
    04:00 +27°C° 0 mm 3 mps 753 mmHg 82%
    05:00 +27°C° 0 mm 3 mps 754 mmHg 82%
    06:00 +27°C° 0 mm 3 mps 754 mmHg 82%
    07:00 +27°C° 0 mm 3 mps 755 mmHg 83%
    08:00 +28°C° 0 mm 2 mps 755 mmHg 76%
    09:00 +30°C° 0 mm 2 mps 755 mmHg 69%
    10:00 +31°C° 0 mm 1 mps 755 mmHg 62%
    11:00 +32°C° 0 mm 2 mps 754 mmHg 58%
    12:00 +34°C° 0 mm 3 mps 754 mmHg 54%
    13:00 +35°C° 0 mm 4 mps 753 mmHg 51%
    14:00 +34°C° 0 mm 4 mps 753 mmHg 54%
    15:00 +34°C° 0 mm 5 mps 752 mmHg 57%
    16:00 +33°C° 0 mm 5 mps 752 mmHg 60%
    17:00 +32°C° 0 mm 5 mps 752 mmHg 65%
    18:00 +30°C° 0 mm 4 mps 752 mmHg 70%
    19:00 +29°C° 0 mm 4 mps 753 mmHg 75%
    20:00 +28°C° 0 mm 4 mps 753 mmHg 78%
    21:00 +28°C° 0 mm 4 mps 754 mmHg 80%
    22:00 +28°C° 0 mm 3 mps 754 mmHg 83%
    23:00 +27°C° 0 mm 3 mps 754 mmHg 84%

    23 January, Wednesday

    Time Temperature Precipitation Wind Pressure Humidity
    00:00 +27°C° 0 mm 4 mps 754 mmHg 85%
    01:00 +27°C° 0 mm 4 mps 754 mmHg 86%
    02:00 +27°C° 0 mm 4 mps 754 mmHg 87%
    03:00 +26°C° 0 mm 3 mps 754 mmHg 87%
    04:00 +26°C° 0 mm 3 mps 754 mmHg 88%
    05:00 +26°C° 0 mm 3 mps 754 mmHg 86%
    06:00 +26°C° 0 mm 3 mps 754 mmHg 85%
    07:00 +26°C° 0 mm 3 mps 754 mmHg 83%
    08:00 +28°C° 0 mm 3 mps 755 mmHg 75%
    09:00 +29°C° 0 mm 3 mps 755 mmHg 66%
    10:00 +31°C° 0 mm 3 mps 755 mmHg 57%
    11:00 +33°C° 0 mm 3 mps 754 mmHg 54%
    12:00 +34°C° 0 mm 4 mps 754 mmHg 51%
    13:00 +35°C° 0 mm 4 mps 753 mmHg 48%
    14:00 +34°C° 0 mm 5 mps 752 mmHg 51%
    15:00 +33°C° 0 mm 5 mps 752 mmHg 54%
    16:00 +33°C° 0 mm 5 mps 751 mmHg 57%
    17:00 +32°C° 0 mm 5 mps 752 mmHg 62%
    18:00 +29°C° 0 mm 4 mps 752 mmHg 68%
    19:00 +28°C° 0 mm 4 mps 753 mmHg 73%
    20:00 +28°C° 0 mm 4 mps 753 mmHg 76%
    21:00 +28°C° 0 mm 3 mps 754 mmHg 78%
    22:00 +27°C° 0 mm 3 mps 754 mmHg 81%
    23:00 +27°C° 0 mm 3 mps 754 mmHg 82%
    Show more